Total_Precipitation_Accumulation
0.00 0.00 0.01 0.04 0.05 0.10 0.16 0.20 0.27 0.37 0.31 0.35 0.35 0.41 0.42 0.56 0.43 0.42 0.38 0.27 0.14 0.13 0.06 0.01 0.00 0.00 0.00 0.00 0.00 0.00 0.00 0.00 0.00 0.00 0.00 0.00 0.00 0.00 0.00 0.00 0.00 0.00 0.00
0.00 0.00 0.01 0.00 0.02 0.05 0.12 0.27 0.15 0.15 0.15 0.25 0.38 0.40 0.82 0.63 0.85 0.90 0.57 0.60 0.50 0.53 0.23 0.07 0.09 0.04 0.01 0.01 0.00 0.01 0.01 0.01 0.01 0.02 0.04 0.02 0.01 0.00 0.00 0.00 0.00 0.00 0.00
0.00 0.00 0.01 0.01 0.01 0.02 0.03 0.07 0.16 0.19 0.23 0.32 0.57 0.65 0.79 0.67 0.71 0.64 0.78 1.03 1.19 1.09 0.72 0.52 0.40 0.33 0.19 0.22 0.15 0.20 0.19 0.14 0.12 0.10 0.14 0.11 0.05 0.02 0.00 0.00 0.00 0.00 0.00
0.00 0.00 0.00 0.01 0.02 0.02 0.05 0.03 0.04 0.05 0.14 0.31 0.32 0.31 0.35 0.52 0.55 0.72 0.78 0.64 0.80 1.03 1.24 1.10 0.82 0.65 0.49 0.47 0.67 0.55 0.55 0.51 0.39 0.29 0.17 0.15 0.11 0.13 0.10 0.04 0.05 0.02 0.01
0.00 0.00 0.00 0.00 0.01 0.01 0.04 0.06 0.01 0.01 0.09 0.18 0.26 0.28 0.18 0.25 0.33 0.37 0.39 0.46 0.48 0.61 0.75 0.78 0.72 0.58 0.53 0.54 0.60 0.60 0.53 0.51 0.47 0.44 0.46 0.35 0.23 0.16 0.21 0.18 0.08 0.06 0.03
0.00 0.00 0.00 0.00 0.01 0.01 0.02 0.02 0.04 0.06 0.16 0.15 0.16 0.17 0.13 0.20 0.32 0.28 0.29 0.34 0.39 0.39 0.43 0.51 0.55 0.64 0.50 0.46 0.54 0.61 0.55 0.50 0.46 0.42 0.46 0.53 0.49 0.33 0.29 0.26 0.15 0.13 0.07
0.00 0.00 0.00 0.00 0.00 0.00 0.01 0.04 0.03 0.05 0.05 0.06 0.06 0.09 0.12 0.14 0.18 0.22 0.21 0.26 0.24 0.20 0.30 0.40 0.45 0.44 0.44 0.40 0.34 0.35 0.35 0.35 0.40 0.44 0.41 0.40 0.40 0.37 0.39 0.43 0.33 0.28 0.19
0.00 0.00 0.00 0.00 0.00 0.00 0.00 0.00 0.01 0.03 0.01 0.01 0.00 0.00 0.03 0.08 0.11 0.10 0.08 0.16 0.15 0.18 0.20 0.22 0.27 0.30 0.32 0.33 0.30 0.30 0.32 0.34 0.40 0.46 0.47 0.44 0.36 0.38 0.38 0.39 0.43 0.40 0.27
0.00 0.00 0.00 0.00 0.00 0.00 0.00 0.00 0.00 0.00 0.01 0.02 0.02 0.01 0.01 0.03 0.05 0.06 0.08 0.10 0.10 0.10 0.13 0.16 0.15 0.19 0.21 0.22 0.24 0.27 0.27 0.30 0.34 0.38 0.43 0.44 0.42 0.45 0.44 0.48 0.60 0.82 0.78
0.00 0.00 0.00 0.00 0.00 0.00 0.00 0.00 0.00 0.00 0.01 0.03 0.01 0.01 0.03 0.05 0.05 0.05 0.06 0.07 0.07 0.07 0.10 0.10 0.11 0.10 0.10 0.10 0.10 0.12 0.13 0.20 0.24 0.29 0.36 0.39 0.39 0.42 0.44 0.49 0.56 0.70 0.93
0.00 0.00 0.00 0.00 0.00 0.00 0.00 0.00 0.00 0.00 0.01 0.00 0.00 0.02 0.03 0.04 0.05 0.06 0.06 0.04 0.03 0.04 0.03 0.03 0.04 0.04 0.03 0.02 0.02 0.03 0.04 0.07 0.12 0.17 0.22 0.23 0.23 0.29 0.35 0.42 0.48 0.55 0.71
0.00 0.00 0.00 0.00 0.00 0.00 0.00 0.00 0.02 0.02 0.01 0.00 0.01 0.03 0.03 0.04 0.04 0.06 0.06 0.05 0.05 0.03 0.02 0.01 0.01 0.01 0.01 0.00 0.01 0.01 0.02 0.03 0.03 0.04 0.06 0.10 0.13 0.18 0.27 0.32 0.35 0.41 0.43
0.00 0.00 0.00 0.00 0.00 0.02 0.05 0.09 0.03 0.00 0.00 0.01 0.01 0.02 0.03 0.04 0.05 0.04 0.04 0.03 0.02 0.02 0.02 0.02 0.01 0.01 0.00 0.00 0.00 0.00 0.01 0.03 0.04 0.07 0.10 0.14 0.21 0.27 0.32 0.39 0.41 0.38 0.36
0.01 0.00 0.00 0.00 0.02 0.07 0.10 0.10 0.01 0.01 0.02 0.03 0.03 0.04 0.05 0.05 0.04 0.05 0.05 0.03 0.03 0.02 0.02 0.02 0.01 0.01 0.02 0.03 0.04 0.05 0.08 0.10 0.12 0.15 0.18 0.23 0.26 0.26 0.24 0.23 0.23 0.25 0.26
0.04 0.02 0.02 0.03 0.02 0.05 0.05 0.06 0.09 0.07 0.07 0.07 0.05 0.05 0.05 0.05 0.04 0.04 0.05 0.05 0.04 0.04 0.04 0.03 0.02 0.04 0.08 0.12 0.16 0.19 0.23 0.29 0.34 0.37 0.35 0.31 0.28 0.21 0.13 0.16 0.17 0.23 0.25
0.04 0.02 0.01 0.01 0.01 0.00 0.00 0.02 0.08 0.09 0.09 0.11 0.06 0.04 0.02 0.05 0.05 0.06 0.06 0.07 0.14 0.12 0.10 0.13 0.17 0.18 0.18 0.30 0.24 0.20 0.22 0.25 0.24 0.22 0.21 0.22 0.24 0.19 0.16 0.16 0.18 0.18 0.33
0.02 0.01 0.00 0.00 0.00 0.00 0.00 0.01 0.03 0.05 0.09 0.08 0.06 0.05 0.03 0.04 0.07 0.09 0.16 0.21 0.27 0.56 0.55 0.56 0.41 0.43 0.49 0.55 0.43 0.40 0.41 0.40 0.36 0.33 0.29 0.20 0.14 0.12 0.09 0.06 0.09 0.18 0.35
0.00 0.01 0.00 0.00 0.00 0.00 0.01 0.02 0.09 0.12 0.40 0.10 0.15 0.16 0.14 0.17 0.20 0.33 0.45 0.48 0.47 0.48 0.55 0.89 0.94 0.94 0.91 0.79 0.58 0.39 0.29 0.20 0.16 0.12 0.08 0.04 0.03 0.03 0.04 0.09 0.29 0.26 0.13
0.00 0.00 0.00 0.00 0.00 0.02 0.02 0.02 0.04 0.14 0.36 0.22 0.25 0.36 0.31 0.28 0.26 0.40 0.50 0.37 0.51 0.67 0.62 0.54 0.44 0.36 0.30 0.21 0.15 0.12 0.11 0.09 0.06 0.02 0.01 0.04 0.03 0.02 0.11 0.27 0.32 0.07 0.01
0.00 0.00 0.00 0.02 0.05 0.08 0.08 0.07 0.07 0.10 0.31 0.33 0.31 0.30 0.48 0.40 0.48 0.44 0.49 0.75 0.60 0.54 0.44 0.34 0.23 0.16 0.10 0.08 0.04 0.01 0.02 0.01 0.00 0.02 0.02 0.02 0.03 0.07 0.32 0.19 0.05 0.08 0.04
0.12 0.14 0.08 0.16 0.24 0.37 0.35 0.41 0.43 0.62 0.88 0.58 0.60 0.65 0.78 0.67 0.61 0.66 0.57 0.50 0.37 0.26 0.20 0.12 0.06 0.03 0.02 0.00 0.00 0.00 0.02 0.02 0.09 0.08 0.02 0.00 0.08 0.28 0.15 0.05 0.03 0.08 0.11
0.12 0.33 0.48 0.53 0.60 0.72 0.65 0.63 0.71 0.75 0.91 0.67 0.59 0.57 0.49 0.44 0.35 0.27 0.18 0.10 0.09 0.05 0.03 0.01 0.00 0.00 0.00 0.00 0.00 0.01 0.03 0.07 0.08 0.05 0.03 0.08 0.22 0.07 0.02 0.02 0.04 0.08 0.08
0.03 0.12 0.22 0.13 0.18 0.29 0.34 0.25 0.24 0.23 0.20 0.16 0.13 0.13 0.08 0.05 0.03 0.00 0.00 0.00 0.00 0.00 0.00 0.00 0.00 0.00 0.00 0.00 0.00 0.00 0.07 0.09 0.08 0.06 0.17 0.16 0.03 0.01 0.01 0.02 0.04 0.04 0.02
0.02 0.04 0.04 0.04 0.04 0.05 0.04 0.03 0.02 0.02 0.01 0.01 0.01 0.00 0.00 0.01 0.00 0.00 0.00 0.00 0.00 0.00 0.00 0.00 0.00 0.00 0.00 0.00 0.00 0.03 0.05 0.04 0.09 0.18 0.16 0.02 0.01 0.02 0.02 0.01 0.02 0.02 0.07
0.00 0.00 0.01 0.02 0.00 0.00 0.00 0.00 0.00 0.00 0.00 0.00 0.00 0.00 0.00 0.01 0.00 0.00 0.00 0.00 0.00 0.00 0.00 0.00 0.01 0.01 0.01 0.01 0.05 0.07 0.06 0.11 0.18 0.08 0.01 0.00 0.01 0.01 0.01 0.00 0.01 0.02 0.06
0.00 0.00 0.00 0.01 0.00 0.00 0.00 0.00 0.00 0.00 0.00 0.00 0.00 0.00 0.00 0.00 0.00 0.00 0.01 0.00 0.00 0.00 0.00 0.00 0.01 0.01 0.02 0.04 0.05 0.04 0.13 0.17 0.07 0.01 0.01 0.02 0.03 0.02 0.02 0.03 0.04 0.04 0.08